[[{"header":{"parameterUnit":"m.s-1","parameterCategory":1,"la1":30.2991,"la2":30.254,"lo1":-89.0895,"lo2":-89.0444,"dy":0.0017,"dx":0.0017,"nx":28,"ny":28,"refTime":"2023-10-30T03:00:00:Z","depth":0,"parameterNumber":2,"parameterNumberName":"U-component_of_WINDS"},"data":[0,0,0,0,0,0,0,0,0,0,0,0,0,0,0,0,0,0,0,0,0,0,0,0,0,0,0,0,0,0,0,0,0,0,0,0,0,0,0,0,0,0,0,0,0,0,0,0,0,0,0,0,0,0,0,0,0,0,0.5318,0.5318,0,0.5298,0.5298,0.5298,0.5301,0.5301,0.5301,0.5302,0.5278,0.5278,0.5277,0,0,0,0,0,0,0,0,0,0,0,0,0,0.5359,0.5358,0.5318,0.5318,0.5318,0.5298,0.5298,0.5298,0.5301,0.5301,0.5301,0.5302,0.5279,0.5278,0.5277,0,0,0,0,0,0,0,0,0,0,0,0,0,0.534,0.5358,0.5319,0.5317,0.5317,0.5298,0.5298,0.5297,0.53,0.5301,0.5302,0.5302,0.5279,0.5278,0.5276,0.5257,0,0,0.5272,0.5271,0,0,0,0,0,0,0,0,0.5341,0.5339,0.5318,0.5317,0.5317,0.5302,0.5304,0.5284,0.53,0.5307,0.5302,0.5302,0.5286,0.5284,0.5279,0.5256,0.5255,0.5272,0.5271,0.527,0.527,0,0,0,0,0,0,0,0.5343,0.534,0.531,0.5317,0.5317,0.5317,0.5315,0.53,0.5293,0.5306,0.5306,0.5304,0.5286,0.528,0.5278,0.5255,0.5272,0.5271,0.527,0.5269,0.5216,0.5216,0,0,0,0,0,0,0.5345,0.5341,0.5311,0.531,0.5331,0.5316,0.5314,0.5306,0.5294,0.5292,0.5304,0.5304,0.5282,0.528,0.5278,0.5255,0.527,0.5269,0.5268,0.5217,0.5216,0.5215,0,0,0,0,0,0,0.5345,0.5342,0.5312,0.5325,0.5322,0.5315,0.5307,0.5306,0.53,0.5292,0.529,0.5299,0.5283,0.528,0.5263,0.5254,0.5268,0.5267,0.5217,0.5216,0.5216,0.5208,0,0,0,0,0,0,0.5347,0.5342,0.5335,0.5325,0.5321,0.5297,0.5306,0.5305,0.5298,0.5299,0.5287,0.5286,0.5283,0.5265,0.5261,0.5252,0.5266,0.5218,0.5217,0.5216,0.5209,0.5207,0.5205,0,0,0,0,0,0.5348,0.5333,0.5334,0.5331,0.5312,0.5297,0.5294,0.5292,0.5297,0.529,0.5285,0.5286,0.5256,0.5263,0.5259,0.5249,0.5219,0.5217,0.5216,0.521,0.5207,0.5205,0,0,0,0,0,0,0.534,0.5331,0.5333,0.5314,0.5306,0.5297,0.5288,0.5289,0.5279,0.528,0.5277,0.5274,0.5257,0.5252,0.526,0.5231,0.5238,0.5236,0.5234,0.5232,0.523,0.5232,0.5265,0,0,0,0,0,0.5337,0.5326,0.5318,0.5303,0.5299,0.5294,0.5287,0.5287,0.5278,0.5274,0.5268,0.5259,0.5247,0.524,0.5228,0.5209,0.5206,0.52,0.5199,0.5197,0.5195,0.5185,0.5182,0.5211,0.5211,0.5211,0,0,0.5328,0.5322,0.5315,0.5301,0.5295,0.5283,0.5291,0.5278,0.527,0.5272,0.5256,0.5251,0.5241,0.5223,0.5214,0.5218,0.5187,0.5196,0.5194,0.5193,0.5183,0.5181,0.5178,0.521,0.5211,0.5211,0,0,0.5307,0.5302,0.5288,0.5282,0.5274,0.5271,0.5268,0.5259,0.5256,0.524,0.5242,0.5232,0.5212,0.5205,0.5199,0.5178,0.5179,0.5174,0.5164,0.5154,0.5152,0.515,0.5142,0.514,0.5172,0.5172,0.5172,0,0.5298,0.5281,0.5281,0.5269,0.5262,0.5266,0.5252,0.5246,0.5234,0.5229,0.5233,0.521,0.5203,0.5184,0.5179,0.5174,0.517,0.5175,0.5152,0.515,0.5148,0.5141,0.5138,0.5172,0.5172,0.5172,0.5172,0,0.527,0.5259,0.5249,0.5238,0.5231,0.5218,0.5216,0.5209,0.5209,0.5206,0.519,0.5183,0.5171,0.5166,0.5166,0.5147,0.515,0.5153,0.516,0.5145,0.5138,0.5136,0.5171,0.5171,0.5171,0.5171,0,0,0.5242,0.5233,0.5229,0.5225,0.5216,0.5207,0.5195,0.5184,0.5178,0.517,0.5159,0.5144,0.5147,0.5141,0.514,0.5131,0.5116,0.5136,0.5136,0.5132,0.5095,0.5092,0.5088,0.5117,0.5116,0.5116,0.5096,0,0.522,0.5199,0.5199,0.5179,0.5169,0.5173,0.5162,0.5156,0.5153,0.5144,0.514,0.5129,0.5135,0.5131,0.5123,0.5119,0.5108,0.5121,0.5106,0.5106,0.5108,0.5085,0.5081,0.5062,0.5093,0.5092,0.5092,0,0.5191,0.5183,0.5163,0.5157,0.5153,0.5143,0.5134,0.5125,0.5118,0.5117,0.5111,0.5111,0.5099,0.5108,0.509,0.5099,0.5094,0.5091,0.509,0.5088,0.5097,0.5081,0.5056,0.5053,0.5088,0.5088,0.5089,0,0.5172,0.5157,0.5143,0.5139,0.5132,0.5125,0.5122,0.5115,0.5109,0.5102,0.5098,0.5088,0.5083,0.5075,0.5074,0.508,0.5057,0.5065,0.5055,0.5055,0.5049,0.5049,0.5021,0.5046,0.5046,0.5047,0.5047,0,0.5147,0.5134,0.5134,0.5125,0.5112,0.5112,0.5098,0.5096,0.5091,0.5081,0.5084,0.5075,0.5074,0.5065,0.5064,0.505,0.5048,0.5046,0.5046,0.5045,0.5046,0.5041,0.5042,0.5046,0.5046,0.5046,0.5046,0,0.5123,0.5122,0.5107,0.5103,0.5101,0.5091,0.5087,0.5079,0.5078,0.5066,0.5063,0.506,0.505,0.5049,0.5036,0.5035,0.5019,0.502,0.5021,0.5021,0.5011,0.5012,0.4979,0.4975,0.5003,0.5003,0.5003,0,0.5106,0.5097,0.5092,0.5086,0.5083,0.5074,0.5068,0.5069,0.5063,0.5056,0.5049,0.5039,0.5031,0.5015,0.5011,0.5002,0.5003,0.4992,0.5001,0.5002,0.5002,0.5003,0.5002,0.499,0.4989,0.4989,0.4989,0,0.5077,0.5078,0.507,0.5063,0.5056,0.505,0.5045,0.504,0.504,0.5033,0.5024,0.5018,0.5006,0.4996,0.4988,0.4984,0.4986,0.4987,0.4984,0.4983,0.4984,0.4983,0.5016,0.4987,0.4987,0.4987,0.4987,0.4987,0.5056,0.5048,0.5044,0.5035,0.5032,0.5027,0.5019,0.5018,0.501,0.5001,0.5002,0.4991,0.4986,0.4975,0.4971,0.4962,0.4965,0.4961,0.496,0.4959,0.4958,0.4986,0.496,0.4961,0.4961,0.4961,0.4961,0,0.5027,0.5025,0.5017,0.501,0.5003,0.5008,0.5003,0.4997,0.4987,0.4983,0.4976,0.4965,0.4956,0.4953,0.4944,0.4938,0.4939,0.4936,0.4936,0.4935,0.4955,0.4958,0.4935,0.4935,0.4935,0.4935,0.4935,0.4935,0.5011,0.4998,0.4998,0.4984,0.4982,0.4972,0.4969,0.4964,0.4961,0.4949,0.4942,0.4941,0.4937,0.4928,0.4921,0.492,0.4916,0.4912,0.4912,0.4931,0.4933,0.4936,0.4939,0.4912,0.4912,0.4893,0.4892,0.4892]},{"header":{"parameterUnit":"m.s-1","parameterCategory":1,"la1":30.2991,"la2":30.254,"lo1":-89.0895,"lo2":-89.0444,"dy":0.0017,"dx":0.0017,"nx":28,"ny":28,"refTime":"2023-10-30T03:00:00:Z","depth":0,"parameterNumber":3,"parameterNumberName":"V-component_of_WINDS"},"data":[0,0,0,0,0,0,0,0,0,0,0,0,0,0,0,0,0,0,0,0,0,0,0,0,0,0,0,0,0,0,0,0,0,0,0,0,0,0,0,0,0,0,0,0,0,0,0,0,0,0,0,0,0,0,0,0,0,0,-8.5209,-8.521,0,-8.5323,-8.5324,-8.5325,-8.5248,-8.5244,-8.5241,-8.5238,-8.5347,-8.5352,-8.5359,0,0,0,0,0,0,0,0,0,0,0,0,0,-8.4918,-8.4924,-8.5209,-8.521,-8.5212,-8.5322,-8.5324,-8.5326,-8.5248,-8.5244,-8.524,-8.5236,-8.5344,-8.5352,-8.5359,0,0,0,0,0,0,0,0,0,0,0,0,0,-8.5039,-8.4926,-8.5209,-8.5187,-8.5186,-8.5322,-8.5324,-8.5326,-8.5249,-8.5244,-8.5239,-8.5234,-8.5342,-8.5351,-8.536,-8.5522,0,0,-8.5388,-8.5392,0,0,0,0,0,0,0,0,-8.5032,-8.505,-8.5189,-8.5189,-8.5188,-8.5266,-8.5261,-8.5391,-8.5251,-8.5225,-8.5238,-8.5231,-8.5323,-8.5334,-8.5366,-8.5527,-8.5531,-8.5389,-8.5395,-8.5399,-8.5401,0,0,0,0,0,0,0,-8.5024,-8.5044,-8.5254,-8.5191,-8.519,-8.5169,-8.518,-8.5286,-8.5302,-8.5227,-8.5222,-8.5237,-8.5322,-8.5358,-8.5368,-8.5533,-8.5389,-8.5397,-8.5403,-8.5406,-8.5831,-8.5837,0,0,0,0,0,0,-8.5019,-8.5038,-8.525,-8.5257,-8.5096,-8.5179,-8.5191,-8.5246,-8.5301,-8.5304,-8.5241,-8.5233,-8.5345,-8.5358,-8.5372,-8.5564,-8.5399,-8.5407,-8.5413,-8.5825,-8.5832,-8.5839,0,0,0,0,0,0,-8.5013,-8.5038,-8.5245,-8.5146,-8.5171,-8.5189,-8.5251,-8.5251,-8.5287,-8.5311,-8.5313,-8.5275,-8.5341,-8.5359,-8.5485,-8.5567,-8.5411,-8.542,-8.5819,-8.5828,-8.5835,-8.5951,0,0,0,0,0,0,-8.5005,-8.5037,-8.51,-8.5148,-8.5177,-8.536,-8.5256,-8.5257,-8.5304,-8.5294,-8.5344,-8.5347,-8.5338,-8.5472,-8.5495,-8.5577,-8.5427,-8.5811,-8.5823,-8.5833,-8.594,-8.5963,-8.5982,0,0,0,0,0,-8.4995,-8.5126,-8.5103,-8.5129,-8.5257,-8.5365,-8.538,-8.537,-8.5311,-8.5373,-8.5389,-8.5345,-8.5555,-8.5486,-8.551,-8.5597,-8.5806,-8.5819,-8.5832,-8.5931,-8.5958,-8.5982,0,0,0,0,0,0,-8.5083,-8.5132,-8.5107,-8.5259,-8.5309,-8.5351,-8.543,-8.54,-8.5465,-8.5453,-8.5435,-8.5447,-8.558,-8.5601,-8.5523,-8.5756,-8.5671,-8.5689,-8.5737,-8.5764,-8.5784,-8.5776,-8.5435,0,0,0,0,0,-8.5122,-8.5208,-8.5244,-8.5374,-8.5401,-8.5412,-8.5458,-8.5446,-8.5496,-8.5516,-8.554,-8.5588,-8.5665,-8.5715,-8.5787,-8.5943,-8.5952,-8.6014,-8.6035,-8.6053,-8.6068,-8.6152,-8.618,-8.5881,-8.5881,-8.5881,0,0,-8.5199,-8.5236,-8.5291,-8.5393,-8.543,-8.5518,-8.5429,-8.5525,-8.559,-8.5529,-8.5651,-8.5671,-8.5723,-8.5865,-8.5929,-8.5887,-8.6153,-8.6069,-8.6083,-8.6089,-8.6168,-8.6196,-8.6222,-8.589,-8.5888,-8.5887,0,0,-8.5386,-8.5424,-8.5537,-8.5576,-8.5635,-8.5641,-8.5668,-8.5716,-8.5728,-8.5851,-8.5807,-8.5882,-8.6014,-8.6053,-8.609,-8.6294,-8.6255,-8.6317,-8.6426,-8.6508,-8.6531,-8.6552,-8.6624,-8.665,-8.6333,-8.6333,-8.6333,0,-8.5475,-8.5608,-8.5597,-8.5698,-8.5744,-8.5696,-8.5809,-8.5847,-8.5925,-8.5956,-8.5908,-8.6075,-8.6106,-8.6256,-8.6306,-8.6338,-8.6367,-8.6311,-8.6529,-8.655,-8.6569,-8.6637,-8.6665,-8.634,-8.634,-8.6339,-8.6338,0,-8.5714,-8.5806,-8.589,-8.597,-8.6025,-8.6131,-8.6135,-8.6191,-8.6175,-8.6186,-8.631,-8.6347,-8.6425,-8.646,-8.6444,-8.6609,-8.6581,-8.6532,-8.6446,-8.6605,-8.6669,-8.6695,-8.6351,-8.6348,-8.6346,-8.6344,0,0,-8.5959,-8.6033,-8.6064,-8.61,-8.6161,-8.6231,-8.6334,-8.6414,-8.6462,-8.6517,-8.6603,-8.6717,-8.6672,-8.6714,-8.6702,-8.6774,-8.6932,-8.6716,-8.6717,-8.6754,-8.7115,-8.7151,-8.7182,-8.6907,-8.6912,-8.6916,-8.711,0,-8.6149,-8.6332,-8.6327,-8.6496,-8.6581,-8.6538,-8.6627,-8.6674,-8.6687,-8.6758,-8.6771,-8.6853,-8.6788,-8.6813,-8.6883,-8.6898,-8.7004,-8.6884,-8.6984,-8.6988,-8.6972,-8.7215,-8.7253,-8.7435,-8.7135,-8.7139,-8.7142,0,-8.6395,-8.6462,-8.6641,-8.6691,-8.6726,-8.6807,-8.688,-8.695,-8.7001,-8.7005,-8.7054,-8.703,-8.7132,-8.7045,-8.7185,-8.7103,-8.7144,-8.7158,-8.7165,-8.7173,-8.7074,-8.7229,-8.7492,-8.7519,-8.7182,-8.7178,-8.7176,0,-8.6555,-8.669,-8.6815,-8.6846,-8.6907,-8.6966,-8.6993,-8.7039,-8.7088,-8.715,-8.7181,-8.7254,-8.7293,-8.7349,-8.7345,-8.7282,-8.7487,-8.7399,-8.7492,-8.7492,-8.7536,-8.7534,-8.7809,-8.7564,-8.7564,-8.7563,-8.7563,0,-8.6768,-8.6879,-8.6888,-8.6964,-8.7087,-8.7079,-8.72,-8.7221,-8.7263,-8.7341,-8.7307,-8.738,-8.7371,-8.7444,-8.7441,-8.7558,-8.7576,-8.758,-8.7578,-8.7583,-8.7583,-8.7609,-8.7596,-8.757,-8.7569,-8.7567,-8.7566,0,-8.6967,-8.6978,-8.7111,-8.7159,-8.7173,-8.7262,-8.7301,-8.7373,-8.7384,-8.7483,-8.7506,-8.7522,-8.7607,-8.7609,-8.7705,-8.7703,-8.7845,-8.7828,-8.7829,-8.7825,-8.7918,-8.7909,-8.8219,-8.8259,-8.7989,-8.7992,-8.7994,0,-8.7102,-8.7187,-8.7245,-8.7297,-8.7329,-8.7412,-8.7462,-8.7456,-8.7509,-8.7574,-8.7638,-8.772,-8.7786,-8.7923,-8.7941,-8.8015,-8.7999,-8.8103,-8.801,-8.8013,-8.8,-8.7995,-8.8003,-8.8121,-8.8124,-8.8126,-8.8128,0,-8.7339,-8.7341,-8.7416,-8.7494,-8.7555,-8.7615,-8.767,-8.7714,-8.7714,-8.7775,-8.7864,-8.7915,-8.8015,-8.8096,-8.8168,-8.8193,-8.8161,-8.8158,-8.8183,-8.8189,-8.8185,-8.8188,-8.7878,-8.815,-8.8148,-8.8147,-8.8145,-8.8145,-8.751,-8.7584,-8.7637,-8.7721,-8.7763,-8.7816,-8.7887,-8.7907,-8.7982,-8.8064,-8.8056,-8.8154,-8.8201,-8.8295,-8.8326,-8.8401,-8.8364,-8.8401,-8.841,-8.8419,-8.8429,-8.8175,-8.8414,-8.8413,-8.8412,-8.8412,-8.8411,0,-8.7745,-8.7778,-8.7856,-8.7937,-8.8003,-8.797,-8.803,-8.8087,-8.8174,-8.8223,-8.8289,-8.839,-8.8469,-8.8495,-8.8571,-8.8626,-8.8613,-8.8646,-8.8641,-8.8647,-8.8458,-8.8428,-8.8655,-8.8655,-8.8655,-8.8655,-8.8655,-8.8655,-8.7876,-8.7999,-8.8007,-8.815,-8.8181,-8.8279,-8.8316,-8.8364,-8.8403,-8.8518,-8.8585,-8.8602,-8.8641,-8.872,-8.8791,-8.8796,-8.8825,-8.8864,-8.8863,-8.8685,-8.8661,-8.8637,-8.8609,-8.8871,-8.8871,-8.9047,-8.9048,-8.905]}]]